• In Belgien
  • Länderverzeichnis
  • Für 7 Tage
  • Wassertemperatur
  • Satellitenkarten
  • Wetterkarte
  • Widgets
  • user-avatar
    Anmelden

    Stündliche Wetter Mons

    Heute, 15 November, Donnerstag

    Zeit Temperatur Niederschläge Wind Luftdruck Luftfeuchtigkeit
    00:00 +7°C° 0 mm 3 m/S 765 mmHg 83%
    01:00 +7°C° 0 mm 3 m/S 765 mmHg 83%
    02:00 +7°C° 0 mm 3 m/S 765 mmHg 83%
    03:00 +7°C° 0 mm 3 m/S 765 mmHg 83%
    04:00 +7°C° 0 mm 3 m/S 765 mmHg 82%
    05:00 +5°C° 0 mm 3 m/S 765 mmHg 80%
    06:00 +5°C° 0 mm 2 m/S 765 mmHg 74%
    07:00 +5°C° 0 mm 3 m/S 765 mmHg 72%
    08:00 +7°C° 0 mm 3 m/S 765 mmHg 69%
    09:00 +8°C° 0 mm 3 m/S 765 mmHg 66%
    10:00 +9°C° 0 mm 3 m/S 765 mmHg 64%
    11:00 +11°C° 0 mm 3 m/S 765 mmHg 62%
    12:00 +12°C° 0 mm 3 m/S 765 mmHg 61%
    13:00 +12°C° 0 mm 3 m/S 765 mmHg 64%
    14:00 +13°C° 0 mm 2 m/S 765 mmHg 67%
    15:00 +12°C° 0 mm 2 m/S 764 mmHg 70%
    16:00 +10°C° 0 mm 2 m/S 765 mmHg 73%
    17:00 +9°C° 0 mm 2 m/S 765 mmHg 76%
    18:00 +7°C° 0 mm 2 m/S 765 mmHg 79%
    19:00 +7°C° 0 mm 2 m/S 765 mmHg 78%
    20:00 +6°C° 0 mm 2 m/S 765 mmHg 77%
    21:00 +6°C° 0 mm 2 m/S 765 mmHg 77%
    22:00 +6°C° 0 mm 2 m/S 765 mmHg 77%
    23:00 +5°C° 0 mm 2 m/S 766 mmHg 78%

    Morgen, 16 November, Freitag

    Zeit Temperatur Niederschläge Wind Luftdruck Luftfeuchtigkeit
    00:00 +5°C° 0 mm 2 m/S 766 mmHg 79%
    01:00 +5°C° 0 mm 2 m/S 766 mmHg 80%
    02:00 +5°C° 0 mm 2 m/S 766 mmHg 80%
    03:00 +5°C° 0 mm 2 m/S 766 mmHg 81%
    04:00 +4°C° 0 mm 2 m/S 766 mmHg 82%
    05:00 +4°C° 0 mm 2 m/S 766 mmHg 82%
    06:00 +4°C° 0 mm 2 m/S 766 mmHg 82%
    07:00 +5°C° 0 mm 2 m/S 766 mmHg 78%
    08:00 +6°C° 0 mm 2 m/S 766 mmHg 75%
    09:00 +7°C° 0 mm 2 m/S 766 mmHg 71%
    10:00 +8°C° 0 mm 2 m/S 766 mmHg 68%
    11:00 +10°C° 0 mm 2 m/S 766 mmHg 64%
    12:00 +12°C° 0 mm 2 m/S 766 mmHg 60%
    13:00 +12°C° 0 mm 2 m/S 766 mmHg 63%
    14:00 +12°C° 0 mm 2 m/S 766 mmHg 66%
    15:00 +12°C° 0 mm 2 m/S 766 mmHg 69%
    16:00 +9°C° 0 mm 2 m/S 766 mmHg 70%
    17:00 +8°C° 0 mm 3 m/S 766 mmHg 72%
    18:00 +7°C° 0 mm 3 m/S 766 mmHg 73%
    19:00 +7°C° 0 mm 3 m/S 767 mmHg 71%
    20:00 +5°C° 0 mm 3 m/S 767 mmHg 70%
    21:00 +4°C° 0 mm 3 m/S 767 mmHg 68%
    22:00 +4°C° 0 mm 3 m/S 767 mmHg 69%
    23:00 +4°C° 0 mm 3 m/S 767 mmHg 70%

    übermorgen, 17 November, Samstag

    Zeit Temperatur Niederschläge Wind Luftdruck Luftfeuchtigkeit
    00:00 +3°C° 0 mm 3 m/S 767 mmHg 71%
    01:00 +3°C° 0 mm 3 m/S 767 mmHg 72%
    02:00 +3°C° 0 mm 3 m/S 767 mmHg 74%
    03:00 +3°C° 0 mm 3 m/S 767 mmHg 76%
    04:00 +2°C° 0 mm 3 m/S 767 mmHg 76%
    05:00 +2°C° 0 mm 3 m/S 767 mmHg 76%
    06:00 +1°C° 0 mm 4 m/S 766 mmHg 77%
    07:00 +3°C° 0 mm 4 m/S 766 mmHg 73%
    08:00 +4°C° 0 mm 4 m/S 767 mmHg 70%
    09:00 +5°C° 0 mm 5 m/S 767 mmHg 66%
    10:00 +6°C° 0 mm 5 m/S 766 mmHg 62%
    11:00 +8°C° 0 mm 5 m/S 766 mmHg 58%
    12:00 +9°C° 0 mm 5 m/S 766 mmHg 53%
    13:00 +9°C° 0 mm 5 m/S 766 mmHg 55%
    14:00 +9°C° 0 mm 5 m/S 766 mmHg 56%
    15:00 +8°C° 0 mm 5 m/S 766 mmHg 58%
    16:00 +7°C° 0 mm 5 m/S 766 mmHg 59%
    17:00 +6°C° 0 mm 5 m/S 766 mmHg 60%
    18:00 +5°C° 0 mm 5 m/S 766 mmHg 61%
    19:00 +5°C° 0 mm 5 m/S 766 mmHg 60%
    20:00 +5°C° 0 mm 5 m/S 766 mmHg 60%
    21:00 +4°C° 0 mm 4 m/S 766 mmHg 60%
    22:00 +4°C° 0 mm 4 m/S 766 mmHg 60%
    23:00 +4°C° 0 mm 4 m/S 766 mmHg 61%

    18 November, Sonntag

    Zeit Temperatur Niederschläge Wind Luftdruck Luftfeuchtigkeit
    00:00 +3°C° 0 mm 4 m/S 766 mmHg 61%
    01:00 +3°C° 0 mm 4 m/S 766 mmHg 60%
    02:00 +1°C° 0 mm 4 m/S 766 mmHg 59%
    03:00 +1°C° 0 mm 4 m/S 766 mmHg 58%
    04:00 +1°C° 0 mm 4 m/S 766 mmHg 56%
    05:00 0°C° 0 mm 4 m/S 766 mmHg 55%
    06:00 0°C° 0 mm 4 m/S 766 mmHg 54%
    07:00 +1°C° 0 mm 5 m/S 766 mmHg 54%
    08:00 +2°C° 0 mm 5 m/S 766 mmHg 53%
    09:00 +2°C° 0 mm 5 m/S 766 mmHg 53%
    10:00 +5°C° 0 mm 5 m/S 766 mmHg 52%
    11:00 +5°C° 0 mm 6 m/S 766 mmHg 51%
    12:00 +7°C° 0 mm 6 m/S 765 mmHg 50%
    13:00 +7°C° 0 mm 6 m/S 765 mmHg 52%
    14:00 +7°C° 0 mm 5 m/S 765 mmHg 54%
    15:00 +6°C° 0 mm 5 m/S 765 mmHg 56%
    16:00 +6°C° 0 mm 5 m/S 764 mmHg 57%
    17:00 +5°C° 0 mm 5 m/S 764 mmHg 58%
    18:00 +3°C° 0 mm 5 m/S 764 mmHg 59%
    19:00 +3°C° 0 mm 5 m/S 764 mmHg 58%
    20:00 +2°C° 0 mm 5 m/S 764 mmHg 58%
    21:00 +2°C° 0 mm 5 m/S 764 mmHg 57%
    22:00 +2°C° 0 mm 5 m/S 764 mmHg 56%
    23:00 +1°C° 0 mm 5 m/S 764 mmHg 56%

    19 November, Montag

    Zeit Temperatur Niederschläge Wind Luftdruck Luftfeuchtigkeit
    00:00 +1°C° 0 mm 5 m/S 764 mmHg 55%
    01:00 +1°C° 0 mm 5 m/S 764 mmHg 60%
    02:00 0°C° 0 mm 5 m/S 763 mmHg 64%
    03:00 0°C° 0 mm 5 m/S 763 mmHg 69%
    04:00 0°C° 0 mm 5 m/S 763 mmHg 74%
    05:00 0°C° 0 mm 5 m/S 763 mmHg 80%
    06:00 0°C° 0 mm 5 m/S 763 mmHg 85%
    07:00 +1°C° 0 mm 6 m/S 763 mmHg 83%
    08:00 +1°C° 0 mm 6 m/S 763 mmHg 81%
    09:00 +2°C° 0 mm 6 m/S 763 mmHg 79%
    10:00 +3°C° 0 mm 6 m/S 762 mmHg 74%
    11:00 +4°C° 0 mm 6 m/S 762 mmHg 68%
    12:00 +5°C° 0 mm 6 m/S 762 mmHg 63%
    13:00 +4°C° 0 mm 6 m/S 761 mmHg 63%
    14:00 +5°C° 0 mm 5 m/S 761 mmHg 63%
    15:00 +5°C° 0 mm 5 m/S 761 mmHg 64%
    16:00 +3°C° 0 mm 5 m/S 760 mmHg 65%
    17:00 +3°C° 0 mm 5 m/S 760 mmHg 66%
    18:00 +3°C° 0 mm 4 m/S 760 mmHg 66%
    19:00 +3°C° 0 mm 4 m/S 760 mmHg 72%
    20:00 +1°C° 0 mm 4 m/S 760 mmHg 79%
    21:00 +1°C° 0 mm 4 m/S 760 mmHg 85%
    22:00 0°C° 0 mm 4 m/S 760 mmHg 87%
    23:00 0°C° 0 mm 4 m/S 759 mmHg 90%

    20 November, Dienstag

    Zeit Temperatur Niederschläge Wind Luftdruck Luftfeuchtigkeit
    00:00 -1°C° 0 mm 4 m/S 759 mmHg 93%
    01:00 -1°C° 0 mm 4 m/S 759 mmHg 93%
    02:00 -1°C° 0 mm 4 m/S 758 mmHg 93%
    03:00 -1°C° 0 mm 4 m/S 758 mmHg 93%
    04:00 -1°C° 0 mm 4 m/S 758 mmHg 92%
    05:00 0°C° 0 mm 4 m/S 757 mmHg 91%
    06:00 0°C° 0 mm 4 m/S 757 mmHg 90%
    07:00 0°C° 0 mm 4 m/S 757 mmHg 88%
    08:00 0°C° 0 mm 5 m/S 757 mmHg 86%
    09:00 +1°C° 0 mm 5 m/S 757 mmHg 83%
    10:00 +1°C° 0 mm 5 m/S 756 mmHg 80%
    11:00 +3°C° 0 mm 4 m/S 756 mmHg 77%
    12:00 +3°C° 0 mm 4 m/S 756 mmHg 74%
    13:00 +3°C° 0 mm 4 m/S 755 mmHg 74%
    14:00 +3°C° 0 mm 4 m/S 755 mmHg 74%
    15:00 +3°C° 0 mm 4 m/S 755 mmHg 74%
    16:00 +3°C° 0 mm 4 m/S 755 mmHg 75%
    17:00 +1°C° 0 mm 4 m/S 755 mmHg 76%
    18:00 +2°C° 0 mm 3 m/S 755 mmHg 77%
    19:00 +1°C° 0 mm 3 m/S 755 mmHg 79%
    20:00 +1°C° 0 mm 3 m/S 755 mmHg 82%
    21:00 0°C° 0 mm 3 m/S 755 mmHg 84%
    22:00 0°C° 0 mm 3 m/S 755 mmHg 85%
    23:00 +1°C° 0 mm 2 m/S 755 mmHg 86%
    Mehr zeigen